Overview Statistics Trail Chart Weather Telemetry Raw packets
 

This is the latest recevied weather packets stored in our database for station/object KB4JHU-15. If no packets are shown the sender has not sent any weather packets the latest 10 day(s).

<< 5 6 7 8 9 10 11 >>
Time Temp. Humidity Pressure Rain* Wind** Luminosity Snow
1788314110 27.22° C 69% - 0 mm - - -
1788312309 27.22° C 65% - 0 mm - - -
1788310508 28.33° C 60% - 0 mm - - -
1788308707 32.78° C 42% - 0 mm - - -
1788306906 32.78° C 42% - 0 mm - - -
1788305105 33.33° C 40% - 0 mm - - -
1788303304 33.89° C 38% - 0 mm - - -
1788301507 35° C 38% - 0 mm - - -
1788299702 35° C 39% - 0 mm - - -
1788297901 35° C 37% - 0 mm - - -
1788296100 33.89° C 44% - 0 mm - - -
1788294299 35.56° C 35% - 0 mm - - -
1788292498 36.67° C 34% - 0 mm - - -
1788290697 34.44° C 39% - 0 mm - - -
1788288896 35° C 38% - 0 mm - - -
1788287095 35° C 39% - 0 mm - - -
1788285294 33.89° C 43% - 0 mm - - -
1788283493 34.44° C 43% - 0 mm - - -
1788281692 33.89° C 44% - 0 mm - - -
1788279891 33.89° C 44% - 0 mm - - -
1788278090 32.22° C 47% - 0 mm - - -
1788276289 32.22° C 50% - 0 mm - - -
1788274488 31.11° C 55% - 0 mm - - -
1788272687 30° C 59% - 0 mm - - -
1788270886 28.33° C 68% - 0 mm - - -

* Rain latest hour (hover to see other rain measurements)
** Current wind speed in m/s (hover to see current wind gust speed)